Simultaneous Nadir Overpasses (SNOs) Predictions

Prediction of SNOs between LANDSAT-8 and METOP-B Satellite Orbit:

Table of predicted SNOs for the next 14.0 days since TLE Epoch: 10/17/2020
Index Date (LANDSAT-8) Time (LANDSAT-8) Lat,Lon (LANDSAT-8) SZA (LANDSAT-8 ) Date (METOP-B) Time (METOP-B) Lat,Lon (METOP-B) SZA (METOP-B ) Distance(km) Time Diff (sec)
1 10/18/2020 20:24:18 -81.10, 93.65 86.53 10/18/2020 20:23:33 -81.11, 93.66 86.54 0.12 45
2 10/18/2020 21:13:43 81.14, -98.23 93.56 10/18/2020 21:14:11 81.13, -98.21 93.58 0.55 28
3 10/21/2020 15:58:32 -81.11, 160.17 85.50 10/21/2020 15:57:55 -81.12, 160.36 85.49 3.28 37
4 10/21/2020 16:47:57 81.14, -31.74 94.58 10/21/2020 16:48:34 81.13, -31.90 94.58 2.99 37
5 10/24/2020 11:32:47 -81.11,-133.34 84.51 10/24/2020 11:32:19 -81.11,-133.33 84.52 0.14 28
6 10/24/2020 12:22:12 81.14, 34.73 95.58 10/24/2020 12:22:57 81.14, 34.77 95.60 0.75 45
7 10/27/2020 07:07:02 -81.11, -66.88 83.54 10/27/2020 07:06:43 -81.11, -67.04 83.57 2.85 19
8 10/27/2020 07:56:27 81.14, 101.16 96.54 10/27/2020 07:57:21 81.13, 101.04 96.54 2.18 54
9 10/30/2020 02:41:17 -81.11, -0.46 82.61 10/30/2020 02:41:06 -81.12, -0.40 82.61 1.03 11
